Showing default

CYGFM02, 41886

Orbit data source: Space-Track

CYGFM02, 41886 is an American payload satellite in LEO that was launched on Thu, 15 Dec 2016 UTC via a PEGASUS XL launch vehicle from the Pegasus Launch, Eastern Range Air Space (ERAS). Payload-class satellites include a variety of spacecraft equipped with specific instruments for various scientific and technological missions. These include communications satellites like Starlink; space stations such as the ISS; scientific satellites like the Hubble; Earth observation satellites from companies like Planet Labs, Umbra, and HawkEye 360; GPS; miniature CubeSats for education and research; and military/defense satellites.

Loading next visibility...
Identifier
41886, 2016-078C
Orbit
LEO
Last TLE update
9 hours ago
Origin
Manufacturer
SST-US
Mission
Extended mission Civil Science
Bus & Motor
CYGNSS, Unknown motor
Mass
29 kg wet, 29 kg dry
Launch date (UTC)
2016-12-15 (9 years ago)
Launch vehicle
PEGASUS XL
Launch site
Pegasus Launch, Eastern Range Air Space (ERAS)
Object type
Payload
Rocket body
Debris
Shape & HBR
Half Hex Cyl + 2 Pan, 1.7 m
Radar Cross Section
0.450 m², Medium (>0.1 m² and < 1m²)

Expand to show TLE details & history

TLE from 9 hours ago
0 CYGFM02
1 41886U 16078C   25187.58655801  .00012735  00000-0  27100-3 0  9991
2 41886  34.9459 339.5255 0009571 155.7510 204.3662 15.44045822475409
Epoch: 2025-07-06T14:04Z
TLE epoch observation values (Epoch: 2025-07-06T14:04:38.612Z)
Latitude
-0.00001°
Longitude
-156.44351°
Altitude
439.013 km
Speed
7.648 km/s
True Right ascension
22h 38m 06s
True Declination
0° 00' 00"
Sunlit
Object was in full shadow at epoch
Visualization orbit readout
Latitude
1.32008°
Longitude
19.36954°
Altitude
426.708 km
Speed
7.661 km/s
Apparent Right ascension
09h 43m 40s
Apparent Declination
-63° 37' 50"
Sunlit
Object is in daylight
Visualization observer readout
Local Sidereal Time
10:36:13
Azimuth
185.975° SSW
Elevation
-14.073°
Doppler factor
1
Orbital elements
Apogee altitude
443.995 km
Perigee altitude
430.949 km
Semi-major axis
6,815.609 km
Eccentricity
0.00096
Inclination
34.9459°
RAAN
339.5255°
Arg. of periapsis
155.751°
True anomaly
Unknown
Mean anomaly
204.3662°
Eccentric anomaly
Unknown
Mean motion
3.85732 °/min
Orbital period
93.33 mins
BSTAR
0.000271
Loading maneuver chart data...
Loading SW <> Apogee altitude chart data...
Loading historical data...
Loading historical data...
Loading historical data...
Loading historical data...
Loading historical data...
Loading historical data...
Loading historical data...

CYGFM02 Visibility forecast

Observer location: undefined°, undefined°

Span
Click to sort rows by Start time (UTC) header in descending order
Start Az.
Max El. time (UTC)
Max El. Az.
Max El.
End time (UTC)
End Az.
4 mins2025-07-07 15:13:04.110Z223.257° SW2025-07-07 15:15:04.110Z168.041° S27.258°2025-07-07 15:17:04.110Z117.866° SE
5 mins2025-07-07 16:51:04.110Z239.819° WSW2025-07-07 16:53:04.110Z185.056° SSW27.717°2025-07-07 16:56:04.110Z123.031° SE
|